Content
SEND FEEDBACK

Daily
Averages
Monthly
Summary
Peru

TACNA, PERU


Home > Central America > Peru
Elevation: 2283 feet     Latitude: 18 00S     Longitude: 070 15W

WEATHER
 
SELECT A DAY
Number of Records: 102,205;   Date Range: 1/1/03 - 8/12/14
 
SHARE

PRINT THIS DATA

[ ← Previous Day ]
WEATHER ALMANAC - JANUARY 31, 2013
[ Next Day → ]
[ °C ]   °F
Weather ElementAverageHighLow
Temperature70.2 °F80.6 °F (2:00 pm)64.4 °F (2:00 am)
Dewpoint57.3 °F59 °F (9:00 am)55 °F (4:00 am)
Humidity62.5 %73 % (2:00 am)44 % (4:00 pm)
Barometer29.82 in29.94 in (10:00 pm)29.74 in (2:00 pm)
Wind Speed6.2 mph15 mph (3:00 pm)
Weather ElementAverage
Visibility6.9 mi
Wind DirectionS (182.5 °)

Weather ElementTotal
Precipitation---
Cooling Degree Days7.5 (Base 65)
Growing Degree Days22.5 (Base 50)
Averaged from 30 records on January 31, 2013
WEATHER CONDITIONS BREAKOUT
WIND DIRECTION BREAKOUT
WEATHER BY HOUR - JANUARY 31, 2013
[ °C ]   °F
Local TimeTemperatureDewpointHumidityBarometerVisibilityWind DirectionWind SpeedGust SpeedPrecipitationEventsConditions
1:00 AM65.0 °F56.0 °F65 %29.88 in9.0 miWSW (240°)4.6 mphPartly Cloudy
1:00 AM66.2 °F55.4 °F68 %29.83 inWSW (240°)4.6 mphClear
2:00 AM64.4 °F55.4 °F73 %29.83 inSSW (210°)4.6 mphClear
3:00 AM64.4 °F55.4 °F73 %29.80 inSW (230°)4.6 mphClear
4:00 AM65.0 °F55.0 °F63 %29.86 in9.0 miCalmPartly Cloudy
4:00 AM64.4 °F55.4 °F73 %29.80 inCalmClear
5:00 AM64.4 °F55.4 °F73 %29.80 inSE (140°)4.6 mphClear
6:00 AM66.2 °F57.2 °F73 %29.80 in6.2 miSSW (200°)3.5 mphMostly Cloudy
7:00 AM67.0 °F57.0 °F62 %29.86 in7.0 miSouth (190°)4.6 mphPartly Cloudy
7:00 AM66.2 °F57.2 °F73 %29.83 in6.2 miSouth (190°)4.6 mphOvercast
8:00 AM68.0 °F57.2 °F68 %29.83 in6.2 miSSW (210°)3.5 mphOvercast
9:00 AM71.6 °F59.0 °F64 %29.83 in6.2 miWest (260°)3.5 mphOvercast
10:00 AM74.0 °F59.0 °F50 %29.81 in7.0 miSE (140°)3.5 mphPartly Cloudy
10:00 AM75.2 °F59.0 °F57 %29.80 in6.2 miSE (140°)3.5 mphPartly Cloudy
11:00 AM77.0 °F59.0 °F54 %29.77 inSW (220°)3.5 mphClear
12:00 PM78.8 °F59.0 °F51 %29.77 inSW (220°)11.5 mphClear
1:00 PM78.8 °F59.0 °F51 %29.77 inSSW (200°)10.4 mphClear
2:00 PM80.6 °F59.0 °F48 %29.74 inSW (220°)12.7 mphClear
3:00 PM78.8 °F57.2 °F47 %29.74 inSW (220°)15.0 mphClear
4:00 PM75.0 °F57.0 °F44 %29.77 in9.0 miSSW (210°)11.5 mphPartly Cloudy
4:00 PM75.2 °F57.2 °F53 %29.77 inSSW (210°)11.5 mphClear
5:00 PM73.4 °F57.2 °F57 %29.77 inSSW (210°)11.5 mphClear
6:00 PM69.8 °F55.4 °F60 %29.80 inSW (220°)12.7 mphClear
7:00 PM68.0 °F57.2 °F68 %29.86 in6.2 miSSW (210°)9.2 mphMostly Cloudy
7:00 PM68.0 °F57.0 °F58 %29.88 in7.0 miSSW (210°)9.2 mphPartly Cloudy
8:00 PM68.0 °F57.2 °F68 %29.89 in6.2 miSouth (170°)6.9 mphOvercast
9:00 PM68.0 °F59.0 °F73 %29.89 in6.2 miSSW (200°)4.6 mphOvercast
10:00 PM68.0 °F58.0 °F63 %29.94 in7.0 mi°1.2 mphPartly Cloudy
10:00 PM68.0 °F59.0 °F73 %29.92 in6.2 miVariable1.2 mphOvercast
11:00 PM68.0 °F59.0 °F73 %29.89 inVariable2.3 mphClear
Hourly data recorded from SPTN, located miles away from Tacna, Peru







STORIES FROM OUR PARTNERS